Date String (YYYY-MM-DD hh:mm:ss) UTC,Instrument flags,absolute air pressure of the measurement (hPa),sample flow rate (lpm),inlet stack bypass flow (lpm),air temperature of the measurement (°C),ambient temperature measured by the external sensor (°C),aerosol sample conditioner tube jacket temperature (°C),OPC LED temperature (°C),internal box temperature (°C),relative humidity of the measurement (%),span deviation,mass concentration of particles derived from Lorenz-Mie calculation of OPC scattering (μg/m³),mass concentration of particles derived from Lorenz-Mie calculation of OPC scattering (μg/m³),mass concentration of particles derived from Lorenz-Mie calculation of OPC scattering (μg/m³)
DateTimeUTC,F1_M11,P_M11,Q1_M11,Q2_M11,T1_M11,T2_M11,T3_M11,T4_M11,T5_M11,U1_M11,ZSPAN_M11,X0_M11,X2_M11,X1_M11
2024-01-11 06:00:00,SystemResetWarning,0810.4,5.00,000.00,018.9,018.7,000.0,027.2,020.1,9.2,0000.0,0006.82,0003.82,0003.47
2024-01-11 06:01:00,SystemResetWarning,0810.4,5.00,000.00,018.9,018.6,000.0,027.2,020.1,9.2,0000.0,0006.81,0003.80,0003.45
2024-01-11 06:02:00,SystemResetWarning,0810.4,5.00,000.00,018.9,018.5,000.0,027.2,020.0,9.3,0000.0,0006.69,0003.76,0003.42
2024-01-11 06:03:00,SystemResetWarning,0810.4,5.00,000.00,018.8,018.4,000.0,027.2,020.0,9.3,0000.0,0006.50,0003.71,0003.39
2024-01-11 06:04:00,SystemResetWarning,0810.4,5.00,000.00,018.8,018.3,000.0,027.2,020.0,9.3,0000.0,0006.36,0003.66,0003.37
2024-01-11 06:05:00,SystemResetWarning,0810.4,5.00,000.00,018.8,018.2,000.0,027.2,020.0,9.4,0000.0,0006.28,0003.64,0003.34
2024-01-11 06:06:00,SystemResetWarning,0810.4,5.00,000.00,018.8,018.2,000.0,027.2,020.0,9.4,0000.0,0006.21,0003.61,0003.31
2024-01-11 06:07:00,SystemResetWarning,0810.4,5.00,000.00,018.8,018.2,000.0,027.2,020.0,9.4,0000.0,0006.08,0003.58,0003.29
2024-01-11 06:08:00,SystemResetWarning,0810.4,5.00,000.00,018.8,018.1,000.0,027.2,020.0,9.4,0000.0,0006.22,0003.61,0003.30
2024-01-11 06:09:00,SystemResetWarning,0810.4,5.00,000.00,018.8,018.1,000.0,027.2,020.0,9.5,0000.0,0006.17,0003.60,0003.31
2024-01-11 06:10:00,SystemResetWarning,0810.3,5.00,000.00,018.8,018.1,000.0,027.2,020.0,9.5,0000.0,0006.72,0003.60,0003.32
2024-01-11 06:11:00,SystemResetWarning,0810.2,5.00,000.00,018.7,018.0,000.0,027.2,020.0,9.5,0000.0,0006.59,0003.61,0003.34
2024-01-11 06:12:00,SystemResetWarning,0810.2,5.00,000.00,018.7,018.0,000.0,027.2,020.0,9.5,0000.0,0006.59,0003.62,0003.35
2024-01-11 06:13:00,SystemResetWarning,0810.3,4.99,000.00,018.7,018.0,000.0,027.2,020.0,9.5,0000.0,0006.84,0003.64,0003.37
2024-01-11 06:14:00,SystemResetWarning,0810.3,5.00,000.00,018.7,018.0,000.0,027.2,020.0,9.5,0000.0,0007.31,0003.66,0003.38
2024-01-11 06:15:00,SystemResetWarning,0810.4,4.99,000.00,018.7,018.0,000.0,027.2,020.0,9.5,0000.0,0007.30,0003.67,0003.39
2024-01-11 06:16:00,SystemResetWarning,0810.4,5.00,000.00,018.7,018.0,000.0,027.2,020.0,9.5,0000.0,0007.27,0003.66,0003.39
2024-01-11 06:17:00,SystemResetWarning,0810.3,5.00,000.00,018.7,018.0,000.0,027.2,020.0,9.5,0000.0,0007.30,0003.68,0003.41
2024-01-11 06:18:00,SystemResetWarning,0810.3,5.01,000.00,018.7,018.0,000.0,027.2,020.0,9.5,0000.0,0007.35,0003.71,0003.43
2024-01-11 06:19:00,SystemResetWarning,0810.3,5.00,000.00,018.7,017.9,000.0,027.2,020.0,9.5,0000.0,0007.27,0003.68,0003.41
2024-01-11 06:20:00,SystemResetWarning,0810.4,5.00,000.00,018.7,017.9,000.0,027.2,020.0,9.5,0000.0,0007.22,0003.66,0003.40
2024-01-11 06:21:00,SystemResetWarning,0810.2,5.00,000.00,018.7,017.9,000.0,027.2,020.0,9.5,0000.0,0006.88,0003.66,0003.39
2024-01-11 06:22:00,SystemResetWarning,0810.2,5.00,000.00,018.7,017.9,000.0,027.2,020.0,9.5,0000.0,0005.94,0003.63,0003.37
2024-01-11 06:23:00,SystemResetWarning,0810.2,4.99,000.00,018.7,017.9,000.0,027.2,020.0,9.5,0000.0,0005.87,0003.61,0003.36
2024-01-11 06:24:00,SystemResetWarning,0810.2,4.99,000.00,018.7,017.9,000.0,027.2,020.0,9.5,0000.0,0005.76,0003.58,0003.34
2024-01-11 06:25:00,SystemResetWarning,0810.2,4.99,000.00,018.7,017.9,000.0,027.2,020.0,9.5,0000.0,0005.13,0003.57,0003.33
2024-01-11 06:26:00,SystemResetWarning,0810.1,5.00,000.00,018.7,017.9,000.0,027.2,020.0,9.4,0000.0,0005.07,0003.55,0003.30
2024-01-11 06:27:00,SystemResetWarning,0810.1,5.00,000.00,018.7,017.9,000.0,027.2,020.0,9.4,0000.0,0005.05,0003.54,0003.29
2024-01-11 06:28:00,SystemResetWarning,0810.2,5.00,000.00,018.7,017.9,000.0,027.2,020.0,9.4,0000.0,0004.95,0003.50,0003.24
2024-01-11 06:29:00,SystemResetWarning,0810.2,5.01,000.00,018.7,017.9,000.0,027.2,020.0,9.4,0000.0,0005.18,0003.46,0003.20
2024-01-11 06:30:00,SystemResetWarning,0810.2,5.00,000.00,018.7,017.8,000.0,027.2,020.0,9.4,0000.0,0005.57,0003.43,0003.17
2024-01-11 06:31:00,SystemResetWarning,0810.1,5.00,000.00,018.7,017.9,000.0,027.2,020.0,9.4,0000.0,0005.50,0003.40,0003.15
2024-01-11 06:32:00,SystemResetWarning,0810.1,5.00,000.00,018.7,017.8,000.0,027.2,020.0,9.4,0000.0,0005.38,0003.35,0003.11
2024-01-11 06:33:00,SystemResetWarning,0810.1,4.99,000.00,018.7,017.8,000.0,027.2,020.0,9.4,0000.0,0005.29,0003.32,0003.10
2024-01-11 06:34:00,SystemResetWarning,0810.1,5.00,000.00,018.7,017.8,000.0,027.2,020.0,9.4,0000.0,0005.31,0003.32,0003.08
2024-01-11 06:35:00,SystemResetWarning,0810.1,5.00,000.00,018.7,017.8,000.0,027.2,020.0,9.4,0000.0,0005.29,0003.30,0003.05
2024-01-11 06:36:00,SystemResetWarning,0810.1,5.00,000.00,018.7,017.8,000.0,027.2,020.0,9.4,0000.0,0005.27,0003.29,0003.01
2024-01-11 06:37:00,SystemResetWarning,0810.1,4.99,000.00,018.7,017.8,000.0,027.2,020.0,9.4,0000.0,0005.32,0003.29,0002.99
2024-01-11 06:38:00,SystemResetWarning,0810.1,5.00,000.00,018.7,017.8,000.0,027.2,020.0,9.4,0000.0,0005.36,0003.29,0002.97
2024-01-11 06:39:00,SystemResetWarning,0810.1,5.01,000.00,018.7,017.8,000.0,027.2,020.0,9.4,0000.0,0005.34,0003.29,0002.97
2024-01-11 06:40:00,SystemResetWarning,0810.0,5.00,000.00,018.7,017.8,000.0,027.1,020.0,9.4,0000.0,0005.12,0003.26,0002.98
2024-01-11 06:41:00,SystemResetWarning,0810.0,5.00,000.00,018.7,017.8,000.0,027.2,020.0,9.4,0000.0,0005.47,0003.25,0002.95
2024-01-11 06:42:00,SystemResetWarning,0809.9,5.00,000.00,018.7,017.8,000.0,027.2,020.0,9.4,0000.0,0006.03,0003.27,0002.94
2024-01-11 06:43:00,SystemResetWarning,0809.8,5.00,000.00,018.7,017.8,000.0,027.1,020.0,9.4,0000.0,0006.26,0003.28,0002.95
2024-01-11 06:44:00,SystemResetWarning,0809.8,5.00,000.00,018.7,017.8,000.0,027.2,020.0,9.4,0000.0,0006.60,0003.29,0002.94
2024-01-11 06:45:00,SystemResetWarning,0809.9,5.00,000.00,018.7,017.8,000.0,027.2,020.0,9.4,0000.0,0007.02,0003.27,0002.92
2024-01-11 06:46:00,SystemResetWarning,0809.8,4.99,000.00,018.7,017.8,000.0,027.2,020.0,9.4,0000.0,0006.97,0003.26,0002.89
2024-01-11 06:47:00,SystemResetWarning,0809.8,5.00,000.00,018.7,017.8,000.0,027.2,020.0,9.4,0000.0,0006.93,0003.24,0002.87
2024-01-11 06:48:00,SystemResetWarning,0809.8,5.00,000.00,018.7,017.8,000.0,027.2,020.0,9.4,0000.0,0006.81,0003.20,0002.85
2024-01-11 06:49:00,SystemResetWarning,0809.8,5.00,000.00,018.7,017.8,000.0,027.2,020.0,9.4,0000.0,0006.81,0003.18,0002.83
2024-01-11 06:50:00,SystemResetWarning,0809.8,4.99,000.00,018.7,017.8,000.0,027.2,020.0,9.4,0000.0,0006.91,0003.16,0002.80
2024-01-11 06:51:00,SystemResetWarning,0809.8,5.00,000.00,018.7,017.8,000.0,027.2,020.0,9.4,0000.0,0006.91,0003.16,0002.79
2024-01-11 06:52:00,SystemResetWarning,0809.8,5.00,000.00,018.7,017.8,000.0,027.2,020.0,9.4,0000.0,0006.13,0003.17,0002.79
2024-01-11 06:53:00,SystemResetWarning,0809.8,5.01,000.00,018.7,018.0,000.0,027.2,020.3,9.4,0000.0,0005.47,0003.15,0002.77
2024-01-11 06:54:00,SystemResetWarning,0809.7,5.01,000.00,018.9,018.7,000.0,027.2,020.7,9.3,0000.0,0005.13,0003.11,0002.73
2024-01-11 06:55:00,SystemResetWarning,0809.7,4.99,000.00,019.0,018.9,000.0,027.2,020.6,9.3,0000.0,0005.01,0003.13,0002.70
2024-01-11 06:56:00,SystemResetWarning,0809.6,4.99,000.00,018.9,018.8,000.0,027.2,020.3,9.3,0000.0,0004.52,0003.13,0002.70
2024-01-11 06:57:00,SystemResetWarning,0809.6,5.00,000.00,018.9,018.7,000.0,027.2,020.2,9.3,0000.0,0004.55,0003.12,0002.68
2024-01-11 06:58:00,SystemResetWarning,0809.6,5.00,000.00,018.9,018.6,000.0,027.2,020.1,9.4,0000.0,0004.44,0003.09,0002.66
2024-01-11 06:59:00,SystemResetWarning,0809.6,5.00,000.00,018.9,018.5,000.0,027.2,020.1,9.4,0000.0,0004.39,0003.06,0002.63
